Weather History for KSBS - September, 2012

Change the Weather History Date:

Wednesday, September 19, 2012

  Actual Average Record
Temperature  
Mean Temperature 54 °F -  
Max Temperature 75 °F 69 °F 86 °F (1935)
Min Temperature 33 °F 32 °F 12 °F (1971)
Degree Days  
Heating Degree Days 11    
Growing Degree Days 4 (Base 50)    
Moisture  
Dew Point 17 °F    
Average Humidity 30    
Maximum Humidity 67    
Minimum Humidity 7    
Precipitation  
Precipitation 0.00 in - - ()
Sea Level Pressure  
Sea Level Pressure 30.32 in    
Wind  
Wind Speed 1 mph (SW)    
Max Wind Speed 10 mph    
Max Gust Speed -    
Visibility 10 miles    
Events      
Averages and records for this station are not official NWS values.
T = Trace of Precipitation, MM = Missing Value Source: NWS Daily Summary

Daily Weather History Graph

Daily Weather History Graph

Search for Another Location

Airport or City:

Trip Planner

Search our weather history database for the weather conditions in past years. The results will help you decide how hot, cold, wet, or windy it might be!

Date:

Astronomy

Sep. 19, 2012 Rise Set
Actual Time 6:52 AM MDT 7:08 PM MDT
Civil Twilight 6:25 AM MDT 7:35 PM MDT
Nautical Twilight 5:53 AM MDT 8:07 PM MDT
Astronomical Twilight 5:20 AM MDT 8:40 PM MDT
Moon 11:07 AM MDT (9/19) 9:19 PM MDT (9/19)
Length of Visible Light 13h 10m
Length of Day
12h 16m
Waxing Crescent, 17% of the Moon is Illuminated
Sep 19
Waxing Crescent
Sep 22
First Quarter
Sep 29
Full
Oct 8
Last Quarter
Oct 15
New

Hourly Weather History & Observations

Time (MDT) Temp. Windchill Dew Point Humidity Pressure Visibility Wind Dir Wind Speed Gust Speed Precip Events Conditions
12:13 AM 45.1 °F - 21.0 °F 38% 30.30 in 10.0 mi Calm Calm - N/A   Clear
12:33 AM 45.9 °F - 21.4 °F 38% 30.30 in 10.0 mi Calm Calm - N/A   Clear
12:53 AM 44.1 °F - 23.0 °F 43% 30.30 in 10.0 mi Calm Calm - N/A   Clear
1:13 AM 44.8 °F - 23.2 °F 43% 30.30 in 10.0 mi Calm Calm - N/A   Clear
1:33 AM 42.4 °F - 22.3 °F 45% 30.32 in 10.0 mi Calm Calm - N/A   Clear
1:53 AM 40.3 °F - 23.9 °F 52% 30.32 in 10.0 mi Calm Calm - N/A   Clear
2:13 AM 40.5 °F 38.4 °F 23.4 °F 51% 30.32 in 10.0 mi SE 3.5 mph - N/A   Clear
2:33 AM 39.6 °F - 23.0 °F 52% 30.32 in 10.0 mi Calm Calm - N/A   Clear
2:53 AM 39.9 °F - 23.5 °F 52% 30.32 in 10.0 mi Calm Calm - N/A   Clear
3:13 AM 38.5 °F - 24.4 °F 57% 30.32 in 10.0 mi Calm Calm - N/A   Clear
3:53 AM 38.3 °F - 23.2 °F 55% 30.33 in 10.0 mi Calm Calm - N/A   Clear
4:13 AM 37.4 °F - 23.7 °F 58% 30.34 in 10.0 mi Calm Calm - N/A   Clear
4:33 AM 38.5 °F - 23.5 °F 55% 30.33 in 10.0 mi Calm Calm - N/A   Clear
4:53 AM 37.4 °F - 23.9 °F 58% 30.34 in 10.0 mi Calm Calm - N/A   Clear
5:13 AM 36.0 °F - 23.5 °F 61% 30.34 in 10.0 mi Calm Calm - N/A   Clear
5:33 AM 36.0 °F - 23.4 °F 60% 30.34 in 10.0 mi Calm Calm - N/A   Clear
5:53 AM 34.5 °F - 23.0 °F 63% 30.34 in 10.0 mi Calm Calm - N/A   Clear
6:13 AM 36.1 °F - 23.9 °F 61% 30.35 in 10.0 mi Calm Calm - N/A   Clear
6:33 AM 33.4 °F - 23.5 °F 67% 30.35 in 10.0 mi Calm Calm - N/A   Clear
6:53 AM 35.1 °F - 23.2 °F 62% 30.35 in 10.0 mi Calm Calm - N/A   Clear
7:13 AM 34.7 °F - 23.0 °F 62% 30.36 in 10.0 mi Calm Calm - N/A   Clear
7:33 AM 33.1 °F - 23.0 °F 66% 30.37 in 10.0 mi Calm Calm - N/A   Clear
7:53 AM 34.9 °F - 23.5 °F 63% 30.37 in 10.0 mi Calm Calm - N/A   Clear
8:13 AM 37.9 °F - 23.4 °F 56% 30.37 in 10.0 mi Calm Calm - N/A   Clear
8:53 AM 41.9 °F - 23.5 °F 48% 30.38 in 10.0 mi Calm Calm - N/A   Clear
9:33 AM 48.9 °F - 21.9 °F 35% 30.37 in 10.0 mi Calm Calm - N/A   Clear
9:53 AM 50.9 °F - 21.2 °F 31% 30.37 in 10.0 mi Calm Calm - N/A   Clear
10:13 AM 53.2 °F - 21.0 °F 28% 30.37 in 10.0 mi Calm Calm - N/A   Clear
10:33 AM 55.9 °F - 20.3 °F 25% 30.36 in 10.0 mi Calm Calm - N/A   Clear
10:53 AM 58.8 °F - 19.4 °F 22% 30.36 in 10.0 mi Calm Calm - N/A   Clear
11:13 AM 62.8 °F - 18.1 °F 18% 30.36 in 10.0 mi Calm Calm - N/A   Clear
11:33 AM 65.7 °F - 15.4 °F 14% 30.36 in 10.0 mi Calm Calm - N/A   Clear
11:53 AM 66.9 °F - 14.9 °F 13% 30.35 in 10.0 mi Calm Calm - N/A   Clear
12:13 PM 66.9 °F - 14.2 °F 13% 30.34 in 10.0 mi Calm Calm - N/A   Clear
12:33 PM 68.9 °F - 12.7 °F 11% 30.34 in 10.0 mi Calm Calm - N/A   Clear
12:53 PM 69.6 °F - 10.6 °F 10% 30.34 in 10.0 mi West 4.6 mph - N/A   Clear
1:13 PM 71.2 °F - 9.5 °F 9% 30.33 in 10.0 mi Calm Calm - N/A   Clear
1:33 PM 71.2 °F - 8.8 °F 9% 30.32 in 10.0 mi South 6.9 mph - N/A   Clear
1:53 PM 71.8 °F - 9.3 °F 9% 30.32 in 10.0 mi Calm Calm - N/A   Clear
2:13 PM 73.2 °F - 10.0 °F 9% 30.31 in 10.0 mi Calm Calm - N/A   Clear
2:33 PM 73.2 °F - 9.1 °F 8% 30.30 in 10.0 mi Calm Calm - N/A   Clear
2:53 PM 74.3 °F - 8.8 °F 8% 30.29 in 10.0 mi SSW 5.8 mph - N/A   Clear
3:13 PM 73.4 °F - 8.2 °F 8% 30.29 in 10.0 mi Calm Calm - N/A   Clear
3:33 PM 73.8 °F - 7.9 °F 8% 30.28 in 10.0 mi Calm Calm - N/A   Clear
3:53 PM 75.2 °F - 6.4 °F 7% 30.28 in 10.0 mi SW 8.1 mph - N/A   Clear
4:13 PM 75.0 °F - 5.7 °F 7% 30.28 in 10.0 mi SSW 4.6 mph - N/A   Clear
4:33 PM 73.4 °F - 6.1 °F 7% 30.27 in 10.0 mi SW 9.2 mph - N/A   Clear
4:53 PM 73.0 °F - 6.1 °F 7% 30.27 in 10.0 mi SW 10.4 mph - N/A   Clear
5:13 PM 72.5 °F - 7.2 °F 8% 30.27 in 10.0 mi SW 8.1 mph - N/A   Clear
5:33 PM 72.3 °F - 7.7 °F 8% 30.27 in 10.0 mi SW 6.9 mph - N/A   Clear
5:53 PM 71.8 °F - 8.1 °F 8% 30.27 in 10.0 mi WSW 6.9 mph - N/A   Clear
6:13 PM 72.9 °F - 7.7 °F 8% 30.26 in 10.0 mi West 4.6 mph - N/A   Clear
6:33 PM 71.6 °F - 7.7 °F 8% 30.26 in 10.0 mi West 6.9 mph - N/A   Clear
6:53 PM 68.0 °F - 9.0 °F 10% 30.27 in 10.0 mi Calm Calm - N/A   Clear
7:13 PM 65.7 °F - 12.0 °F 12% 30.27 in 10.0 mi Calm Calm - N/A   Clear
7:33 PM 64.9 °F - 9.9 °F 12% 30.28 in 10.0 mi Calm Calm - N/A   Clear
7:53 PM 63.7 °F - 11.5 °F 13% 30.28 in 10.0 mi Calm Calm - N/A   Clear
8:13 PM 60.1 °F - 14.2 °F 17% 30.28 in 10.0 mi Calm Calm - N/A   Clear
8:33 PM 58.8 °F - 15.8 °F 19% 30.29 in 10.0 mi Calm Calm - N/A   Clear
8:53 PM 55.8 °F - 17.2 °F 22% 30.29 in 10.0 mi Calm Calm - N/A   Clear
9:13 PM 55.9 °F - 16.9 °F 22% 30.30 in 10.0 mi Calm Calm - N/A   Clear
9:33 PM 52.9 °F - 17.1 °F 24% 30.30 in 10.0 mi Calm Calm - N/A   Clear
9:53 PM 54.7 °F - 16.5 °F 22% 30.30 in 10.0 mi Calm Calm - N/A   Clear
10:33 PM 50.9 °F - 18.0 °F 27% 30.31 in 10.0 mi NE 3.5 mph - N/A   Clear
10:53 PM 52.3 °F - 17.1 °F 25% 30.31 in 10.0 mi Calm Calm - N/A   Clear
11:13 PM 48.4 °F - 18.5 °F 31% 30.31 in 10.0 mi Calm Calm - N/A   Clear
11:33 PM 47.8 °F - 19.2 °F 32% 30.32 in 10.0 mi Calm Calm - N/A   Clear
11:53 PM 48.4 °F - 18.5 °F 31% 30.31 in 10.0 mi Calm Calm - N/A   Clear